Location: Sewell
(39.7660°N, 75.1450°W)
Time: 18:00:11
(UTC-04:00)

ISS - Visible Passes

Search period start: 28 May 2015 00:00
Search period end: 07 June 2015 00:00
Orbit: 399 x 404 km, 51.6° (Epoch: 28 May)

Date Brightness Start Highest point End Pass type
(mag) Time Alt. Az. Time Alt. Az. Time Alt. Az.
28 May -0.3 01:34:53 14° NNW 01:35:07 14° NNW 01:37:01 10° NNE visible
28 May 0.1 03:11:49 10° N 03:12:37 11° N 03:13:26 10° NNE visible
28 May -0.6 04:47:20 10° NNW 04:49:58 22° NNE 04:52:38 10° ENE visible
29 May -0.3 00:42:46 16° N 00:42:46 16° N 00:44:03 10° NNE visible
29 May 0.2 02:18:21 10° NNW 02:19:01 10° N 02:19:40 10° N visible
29 May -0.2 03:54:23 10° NNW 03:56:30 16° NNE 03:58:38 10° ENE visible
29 May -0.6 23:50:04 17° NNE 23:50:04 17° NNE 23:51:04 10° NE visible
30 May 0.1 01:24:16 10° NNW 01:25:25 11° N 01:26:33 10° NNE visible
30 May 0.0 03:01:26 10° NNW 03:02:57 13° NNE 03:04:30 10° NE visible
30 May -1.7 04:36:58 10° NW 04:40:05 39° NNE 04:43:10 10° ESE visible
30 May -1.8 21:16:32 10° S 21:18:38 16° SE 21:20:49 10° E visible
30 May -2.4 22:51:38 10° WSW 22:54:48 49° NNW 22:57:59 10° NE visible
31 May 0.0 00:30:04 10° NW 00:31:50 14° NNW 00:33:35 10° NNE visible
31 May 0.3 02:08:26 10° N 02:09:21 11° N 02:10:17 10° NNE visible
31 May -0.8 03:43:55 10° NNW 03:46:40 24° NNE 03:49:25 10° E visible
31 May -3.5 21:58:16 10° SW 22:01:31 83° SE 22:04:46 10° NE visible
31 May -0.4 23:35:57 10° WNW 23:38:17 18° NNW 23:40:36 10° NNE visible
01 Jun 0.4 01:15:07 10° N 01:15:43 10° N 01:16:19 10° N visible
01 Jun -0.2 02:50:56 10° NNW 02:53:10 17° NNE 02:55:27 10° ENE visible
01 Jun -3.4 04:26:43 10° NW 04:30:00 88° NE 04:33:15 10° SE visible
01 Jun -2.9 21:05:16 10° SSW 21:08:18 39° SE 21:11:21 10° ENE visible
01 Jun -1.0 22:42:00 10° W 22:44:47 26° NNW 22:47:35 10° NNE visible
02 Jun 0.3 00:21:05 10° NNW 00:22:05 11° N 00:23:04 10° N visible
02 Jun 0.1 01:57:57 10° NNW 01:59:36 13° NNE 02:01:17 10° NE visible
02 Jun -2.2 03:33:31 10° NW 03:36:40 45° NNE 03:39:49 10° ESE visible
02 Jun -2.0 21:48:16 10° WSW 21:51:22 42° NNW 21:54:29 10° NE visible
02 Jun 0.1 23:26:51 10° NW 23:28:28 13° NNW 23:30:03 10° NNE visible
03 Jun 0.3 01:04:57 10° NNW 01:05:59 11° N 01:07:02 10° NNE visible
03 Jun -1.1 02:40:25 10° NNW 02:43:15 27° NNE 02:46:06 10° E visible
03 Jun -2.8 04:16:41 10° WNW 04:19:43 37° SW 04:22:45 10° SSE visible
03 Jun -3.3 20:54:48 10° SW 20:58:02 83° NW 21:01:17 10° NE visible
03 Jun -0.2 22:32:40 10° WNW 22:34:52 17° NNW 22:37:03 10° NNE visible
04 Jun 0.3 00:11:44 10° N 00:12:19 10° N 00:12:56 10° NNE visible
04 Jun -0.5 01:47:23 10° NNW 01:49:45 18° NNE 01:52:09 10° ENE visible
04 Jun -3.2 03:23:14 10° NW 03:28:42 19° SE 03:29:45 10° SE visible
04 Jun -0.7 21:38:38 10° W 21:41:20 23° NNW 21:44:01 10° NNE visible
04 Jun 0.2 23:17:48 10° NNW 23:18:39 11° N 23:19:30 10° N visible
05 Jun -0.1 00:54:22 10° NNW 00:56:10 14° NNE 00:57:59 10° NE visible
05 Jun -0.6 02:29:58 10° NW 02:30:31 14° NW 02:30:31 14° NW visible
05 Jun 0.0 22:23:31 10° NW 22:25:00 12° NNW 22:26:26 10° NNE visible
06 Jun 0.0 00:01:21 10° NNW 00:02:31 11° N 00:03:43 10° NNE visible
06 Jun -0.6 01:36:49 10° NW 01:37:55 17° NNW 01:37:55 17° NNW visible
06 Jun -0.2 21:29:17 10° WNW 21:31:21 16° NNW 21:33:24 10° NNE visible
06 Jun 0.1 23:08:12 10° N 23:08:50 10° N 23:09:29 10° NNE visible
